When you browse on this site, cookies collect data to enhance your experience and personalize the content and advertising you see.
Visit our Privacy Policy to learn more. By continuing to use the site, you agree to this use of cookies and data.
  • In Hungary
  • List of Countries
  • For 7 days
  • Water Temperature
  • Weather Map
  • News
  • Weather Widgets
  • user-avatar
    Login

    Hourly Weather Eisenstadt

    Today, 27 May, Wednesday

    Time Temperature Precipitation Wind Pressure Humidity
    00:00 +7°C° 0 mm 4 mps 733 mmHg 83%
    01:00 +7°C° 0 mm 4 mps 733 mmHg 84%
    02:00 +7°C° 0 mm 4 mps 732 mmHg 84%
    03:00 +7°C° 0 mm 4 mps 732 mmHg 85%
    04:00 +6°C° 0 mm 4 mps 732 mmHg 85%
    05:00 +8°C° 0 mm 4 mps 732 mmHg 79%
    06:00 +9°C° 0 mm 5 mps 732 mmHg 73%
    07:00 +11°C° 0 mm 6 mps 732 mmHg 67%
    08:00 +13°C° 0 mm 6 mps 733 mmHg 62%
    09:00 +14°C° 0 mm 6 mps 733 mmHg 56%
    10:00 +16°C° 0 mm 6 mps 733 mmHg 50%
    11:00 +16°C° 0 mm 6 mps 732 mmHg 48%
    12:00 +17°C° 0 mm 6 mps 732 mmHg 46%
    13:00 +19°C° 0 mm 6 mps 731 mmHg 44%
    14:00 +19°C° 0 mm 5 mps 731 mmHg 45%
    15:00 +19°C° 0 mm 5 mps 731 mmHg 46%
    16:00 +19°C° 0 mm 5 mps 730 mmHg 47%
    17:00 +17°C° 0 mm 4 mps 730 mmHg 55%
    18:00 +15°C° 0 mm 4 mps 730 mmHg 63%
    19:00 +13°C° 0 mm 3 mps 730 mmHg 71%
    20:00 +12°C° 0 mm 3 mps 730 mmHg 73%
    21:00 +11°C° 0 mm 3 mps 730 mmHg 76%
    22:00 +10°C° 0 mm 3 mps 730 mmHg 78%
    23:00 +10°C° 0 mm 2 mps 730 mmHg 79%

    Tomorrow, 28 May, Thursday

    Time Temperature Precipitation Wind Pressure Humidity
    00:00 +9°C° 0 mm 2 mps 730 mmHg 81%
    01:00 +9°C° 0 mm 2 mps 730 mmHg 82%
    02:00 +9°C° 0 mm 2 mps 729 mmHg 81%
    03:00 +9°C° 0 mm 2 mps 729 mmHg 80%
    04:00 +8°C° 0 mm 2 mps 729 mmHg 79%
    05:00 +10°C° 0 mm 2 mps 729 mmHg 75%
    06:00 +13°C° 0 mm 2 mps 729 mmHg 70%
    07:00 +14°C° 0 mm 3 mps 729 mmHg 66%
    08:00 +13°C° 0.2 mm 3 mps 728 mmHg 72%
    09:00 +12°C° 0.2 mm 3 mps 728 mmHg 77%
    10:00 +12°C° 0.2 mm 3 mps 728 mmHg 82%
    11:00 +12°C° 0.2 mm 3 mps 728 mmHg 83%
    12:00 +11°C° 0.2 mm 4 mps 728 mmHg 83%
    13:00 +11°C° 0.2 mm 4 mps 727 mmHg 83%
    14:00 +13°C° 0 mm 5 mps 727 mmHg 75%
    15:00 +14°C° 0 mm 5 mps 727 mmHg 66%
    16:00 +15°C° 0 mm 6 mps 727 mmHg 58%
    17:00 +14°C° 0.1 mm 5 mps 727 mmHg 63%
    18:00 +13°C° 0.1 mm 4 mps 727 mmHg 67%
    19:00 +12°C° 0.1 mm 3 mps 726 mmHg 72%
    20:00 +11°C° 0 mm 3 mps 727 mmHg 74%
    21:00 +10°C° 0 mm 3 mps 727 mmHg 77%
    22:00 +9°C° 0 mm 3 mps 727 mmHg 80%
    23:00 +9°C° 0.1 mm 3 mps 727 mmHg 81%

    Day after tomorrow, 29 May, Friday

    Time Temperature Precipitation Wind Pressure Humidity
    00:00 +9°C° 0.1 mm 3 mps 727 mmHg 83%
    01:00 +8°C° 0.1 mm 4 mps 726 mmHg 84%
    02:00 +8°C° 0 mm 4 mps 726 mmHg 85%
    03:00 +8°C° 0 mm 3 mps 726 mmHg 86%
    04:00 +8°C° 0 mm 3 mps 726 mmHg 87%
    05:00 +8°C° 0 mm 4 mps 726 mmHg 83%
    06:00 +9°C° 0 mm 5 mps 726 mmHg 79%
    07:00 +10°C° 0 mm 6 mps 726 mmHg 75%
    08:00 +11°C° 0 mm 6 mps 726 mmHg 70%
    09:00 +13°C° 0 mm 6 mps 726 mmHg 65%
    10:00 +14°C° 0 mm 6 mps 726 mmHg 59%
    11:00 +14°C° 0 mm 6 mps 726 mmHg 57%
    12:00 +15°C° 0 mm 6 mps 726 mmHg 55%
    13:00 +15°C° 0 mm 6 mps 725 mmHg 53%
    14:00 +15°C° 0 mm 6 mps 725 mmHg 53%
    15:00 +16°C° 0 mm 6 mps 725 mmHg 53%
    16:00 +16°C° 0 mm 6 mps 725 mmHg 53%
    17:00 +14°C° 0 mm 5 mps 724 mmHg 60%
    18:00 +13°C° 0 mm 4 mps 724 mmHg 66%
    19:00 +12°C° 0 mm 4 mps 724 mmHg 73%
    20:00 +11°C° 0 mm 4 mps 724 mmHg 77%
    21:00 +10°C° 0 mm 3 mps 725 mmHg 81%
    22:00 +9°C° 0 mm 3 mps 725 mmHg 85%
    23:00 +8°C° 0 mm 3 mps 725 mmHg 85%

    30 May, Saturday

    Time Temperature Precipitation Wind Pressure Humidity
    00:00 +8°C° 0 mm 3 mps 725 mmHg 84%
    01:00 +8°C° 0 mm 3 mps 724 mmHg 84%
    02:00 +7°C° 0 mm 3 mps 724 mmHg 84%
    03:00 +7°C° 0 mm 3 mps 724 mmHg 83%
    04:00 +7°C° 0 mm 3 mps 724 mmHg 83%
    05:00 +7°C° 0 mm 4 mps 724 mmHg 75%
    06:00 +8°C° 0 mm 5 mps 724 mmHg 68%
    07:00 +9°C° 0 mm 5 mps 724 mmHg 60%
    08:00 +10°C° 0 mm 5 mps 725 mmHg 56%
    09:00 +12°C° 0 mm 5 mps 725 mmHg 53%
    10:00 +13°C° 0 mm 6 mps 725 mmHg 49%
    11:00 +14°C° 0 mm 5 mps 724 mmHg 48%
    12:00 +14°C° 0 mm 5 mps 724 mmHg 48%
    13:00 +14°C° 0 mm 5 mps 724 mmHg 47%
    14:00 +14°C° 0 mm 5 mps 723 mmHg 47%
    15:00 +15°C° 0 mm 5 mps 723 mmHg 48%
    16:00 +15°C° 0 mm 5 mps 723 mmHg 48%
    17:00 +14°C° 0 mm 4 mps 723 mmHg 54%
    18:00 +12°C° 0 mm 4 mps 723 mmHg 60%
    19:00 +11°C° 0 mm 3 mps 723 mmHg 65%
    20:00 +10°C° 0 mm 3 mps 723 mmHg 69%
    21:00 +9°C° 0 mm 3 mps 723 mmHg 72%
    22:00 +8°C° 0 mm 3 mps 723 mmHg 75%
    23:00 +8°C° 0 mm 3 mps 723 mmHg 76%

    31 May, Sunday

    Time Temperature Precipitation Wind Pressure Humidity
    00:00 +8°C° 0 mm 2 mps 723 mmHg 77%
    01:00 +8°C° 0 mm 2 mps 723 mmHg 78%
    02:00 +8°C° 0 mm 2 mps 723 mmHg 80%
    03:00 +7°C° 0 mm 2 mps 722 mmHg 82%
    04:00 +7°C° 0 mm 2 mps 722 mmHg 83%
    05:00 +9°C° 0 mm 2 mps 723 mmHg 77%
    06:00 +11°C° 0 mm 3 mps 723 mmHg 70%
    07:00 +12°C° 0 mm 3 mps 723 mmHg 63%
    08:00 +13°C° 0 mm 3 mps 723 mmHg 61%
    09:00 +14°C° 0 mm 3 mps 723 mmHg 59%
    10:00 +14°C° 0 mm 3 mps 723 mmHg 57%
    11:00 +16°C° 0 mm 3 mps 723 mmHg 55%
    12:00 +17°C° 0 mm 3 mps 722 mmHg 52%
    13:00 +18°C° 0 mm 3 mps 722 mmHg 49%
    14:00 +18°C° 0 mm 3 mps 722 mmHg 50%
    15:00 +17°C° 0 mm 3 mps 722 mmHg 52%
    16:00 +17°C° 0 mm 3 mps 722 mmHg 54%
    17:00 +16°C° 0 mm 3 mps 722 mmHg 60%
    18:00 +14°C° 0 mm 3 mps 722 mmHg 66%
    19:00 +14°C° 0 mm 2 mps 722 mmHg 73%
    20:00 +12°C° 0 mm 3 mps 722 mmHg 76%
    21:00 +11°C° 0 mm 3 mps 722 mmHg 79%
    22:00 +10°C° 0 mm 3 mps 722 mmHg 82%
    23:00 +10°C° 0 mm 3 mps 722 mmHg 84%

    1 June, Monday

    Time Temperature Precipitation Wind Pressure Humidity
    00:00 +9°C° 0 mm 3 mps 722 mmHg 86%
    01:00 +9°C° 0 mm 3 mps 722 mmHg 87%
    02:00 +9°C° 0 mm 3 mps 722 mmHg 86%
    03:00 +9°C° 0 mm 3 mps 722 mmHg 85%
    04:00 +10°C° 0 mm 3 mps 722 mmHg 83%
    05:00 +10°C° 0 mm 3 mps 722 mmHg 82%
    06:00 +12°C° 0 mm 2 mps 722 mmHg 81%
    07:00 +12°C° 0 mm 2 mps 722 mmHg 80%
    08:00 +11°C° 0.4 mm 3 mps 722 mmHg 82%
    09:00 +11°C° 0.4 mm 3 mps 722 mmHg 85%
    10:00 +11°C° 0.4 mm 3 mps 722 mmHg 87%
    11:00 +12°C° 0.2 mm 3 mps 722 mmHg 86%
    12:00 +13°C° 0.2 mm 4 mps 722 mmHg 85%
    13:00 +13°C° 0.2 mm 4 mps 722 mmHg 84%
    14:00 +15°C° 0 mm 4 mps 722 mmHg 79%
    15:00 +17°C° 0 mm 4 mps 722 mmHg 74%
    16:00 +19°C° 0 mm 4 mps 722 mmHg 68%
    17:00 +18°C° 0 mm 3 mps 722 mmHg 72%
    18:00 +17°C° 0 mm 3 mps 721 mmHg 77%
    19:00 +16°C° 0 mm 3 mps 721 mmHg 81%
    20:00 +14°C° 0 mm 3 mps 721 mmHg 84%
    21:00 +13°C° 0 mm 3 mps 722 mmHg 87%
    22:00 +12°C° 0 mm 3 mps 722 mmHg 90%
    23:00 +12°C° 0 mm 3 mps 722 mmHg 90%
    Show more